Time,TemperatureF,DewpointF,PressureIn,WindDirection,WindDirectionDegrees,WindSpeedMPH,WindSpeedGustMPH,Humidity,HourlyPrecipIn,Conditions,Clouds,dailyrainin,SolarRadiationWatts/m^2,SoftwareType,DateUTC
2013-07-20 00:43:00,68.0,37.0,-100.00,West,268,1.0,5.0,32,0.00,,,0.00,0.000000,,2013-07-20 06:43:00,
2013-07-20 00:52:00,68.0,37.0,-100.00,West,268,1.0,5.0,32,0.00,,,0.00,0.000000,,2013-07-20 06:52:00,
2013-07-20 01:22:00,68.0,37.0,-100.00,SSW,192,2.0,6.0,32,0.00,,,0.00,0.000000,,2013-07-20 07:22:00,
2013-07-20 01:33:00,68.0,37.0,-100.00,SSW,192,2.0,6.0,32,0.00,,,0.00,0.000000,,2013-07-20 07:33:00,
2013-07-20 01:44:00,68.0,37.0,-100.00,SSW,192,2.0,6.0,32,0.00,,,0.00,0.000000,,2013-07-20 07:44:00,
2013-07-20 01:53:00,68.0,37.0,-100.00,SSW,192,2.0,6.0,32,0.00,,,0.00,0.000000,,2013-07-20 07:53:00,
2013-07-20 02:44:00,66.0,36.0,-100.00,West,259,0.0,5.0,33,0.00,,,-99.99,0.000000,,2013-07-20 08:44:00,
2013-07-20 02:52:00,66.0,36.0,-100.00,West,259,0.0,5.0,33,0.00,,,-99.99,0.000000,,2013-07-20 08:52:00,
2013-07-20 03:22:00,64.0,37.0,-100.00,WNW,295,1.0,4.0,36,0.00,,,0.00,0.000000,,2013-07-20 09:22:00,
2013-07-20 03:33:00,64.0,37.0,-100.00,WNW,295,1.0,4.0,36,0.00,,,0.00,0.000000,,2013-07-20 09:33:00,
2013-07-20 03:43:00,64.0,37.0,-100.00,WNW,295,1.0,4.0,36,0.00,,,0.00,0.000000,,2013-07-20 09:43:00,
2013-07-20 03:53:00,64.0,37.0,-100.00,WNW,295,1.0,4.0,36,0.00,,,0.00,0.000000,,2013-07-20 09:53:00,
2013-07-20 04:21:00,64.0,35.0,-100.00,SSW,209,2.0,5.0,34,0.00,,,0.00,0.000000,,2013-07-20 10:21:00,
2013-07-20 04:32:00,64.0,35.0,-100.00,SSW,209,2.0,5.0,34,0.00,,,0.00,0.000000,,2013-07-20 10:32:00,
2013-07-20 04:42:00,64.0,35.0,-100.00,SSW,209,2.0,5.0,34,0.00,,,0.00,0.000000,,2013-07-20 10:42:00,
2013-07-20 04:52:00,64.0,35.0,-100.00,SSW,209,2.0,5.0,34,0.00,,,0.00,0.000000,,2013-07-20 10:52:00,
2013-07-20 05:22:00,62.0,35.0,-100.00,South,181,1.0,4.0,36,-99.99,,,0.00,0.000000,,2013-07-20 11:22:00,
2013-07-20 05:32:00,62.0,35.0,-100.00,South,181,1.0,4.0,36,-99.99,,,0.00,0.000000,,2013-07-20 11:32:00,
2013-07-20 05:43:00,62.0,35.0,-100.00,South,181,1.0,4.0,36,-99.99,,,0.00,0.000000,,2013-07-20 11:43:00,
2013-07-20 05:52:00,62.0,35.0,-100.00,South,181,1.0,4.0,36,-99.99,,,0.00,0.000000,,2013-07-20 11:52:00,
2013-07-20 06:32:00,62.0,35.0,-100.00,South,170,1.0,5.0,37,0.00,,,0.00,0.000000,,2013-07-20 12:32:00,
2013-07-20 06:52:00,62.0,35.0,-100.00,South,170,1.0,5.0,37,0.00,,,0.00,0.000000,,2013-07-20 12:52:00,
2013-07-20 07:32:00,60.0,37.0,-100.00,ESE,116,0.0,4.0,42,-99.99,,,0.00,6.000000,,2013-07-20 13:32:00,
2013-07-20 07:43:00,60.0,37.0,-100.00,ESE,116,0.0,4.0,42,-99.99,,,0.00,6.000000,,2013-07-20 13:43:00,
2013-07-20 07:53:00,60.0,37.0,-100.00,ESE,116,0.0,4.0,42,-99.99,,,0.00,6.000000,,2013-07-20 13:53:00,
2013-07-20 08:32:00,66.0,38.0,-100.00,South,184,0.0,3.0,36,0.00,,,0.00,126.000000,,2013-07-20 14:32:00,
2013-07-20 08:53:00,66.0,38.0,-100.00,South,184,0.0,3.0,36,0.00,,,0.00,126.000000,,2013-07-20 14:53:00,
2013-07-20 09:22:00,66.0,37.0,-100.00,SW,215,2.0,3.0,34,-99.99,,,-99.99,68.000000,,2013-07-20 15:22:00,
2013-07-20 09:33:00,66.0,37.0,-100.00,SW,215,2.0,3.0,34,-99.99,,,-99.99,68.000000,,2013-07-20 15:33:00,
2013-07-20 09:44:00,66.0,37.0,-100.00,SW,215,2.0,3.0,34,-99.99,,,-99.99,68.000000,,2013-07-20 15:44:00,
2013-07-20 09:52:00,66.0,37.0,-100.00,SW,215,2.0,3.0,34,-99.99,,,-99.99,68.000000,,2013-07-20 15:52:00,
2013-07-20 10:22:00,75.0,40.0,-100.00,WSW,254,1.0,4.0,28,0.00,,,0.00,365.000000,,2013-07-20 16:22:00,
2013-07-20 10:32:00,75.0,40.0,-100.00,WSW,254,1.0,4.0,28,0.00,,,0.00,365.000000,,2013-07-20 16:32:00,
2013-07-20 10:43:00,75.0,40.0,-100.00,WSW,254,1.0,4.0,28,0.00,,,0.00,365.000000,,2013-07-20 16:43:00,
2013-07-20 10:52:00,75.0,40.0,-100.00,WSW,254,1.0,4.0,28,0.00,,,0.00,365.000000,,2013-07-20 16:52:00,
2013-07-20 11:43:00,78.0,40.0,-100.00,West,259,2.0,5.0,26,0.00,,,0.00,677.000000,,2013-07-20 17:43:00,
2013-07-20 11:53:00,78.0,40.0,-100.00,West,259,2.0,5.0,26,0.00,,,0.00,677.000000,,2013-07-20 17:53:00,
2013-07-20 12:23:00,81.0,39.0,-100.00,West,279,3.0,7.0,22,0.00,,,0.00,817.000000,,2013-07-20 18:23:00,
2013-07-20 12:35:00,81.0,39.0,-100.00,West,279,3.0,7.0,22,0.00,,,0.00,817.000000,,2013-07-20 18:35:00,
2013-07-20 12:43:00,81.0,39.0,-100.00,West,279,3.0,7.0,22,0.00,,,0.00,817.000000,,2013-07-20 18:43:00,
2013-07-20 12:54:00,81.0,39.0,-100.00,West,279,3.0,7.0,22,0.00,,,0.00,817.000000,,2013-07-20 18:54:00,
2013-07-20 13:23:00,83.0,38.0,-100.00,West,268,3.0,8.0,20,0.00,,,0.00,919.000000,,2013-07-20 19:23:00,
2013-07-20 13:33:00,83.0,38.0,-100.00,West,268,3.0,8.0,20,0.00,,,0.00,919.000000,,2013-07-20 19:33:00,
2013-07-20 13:43:00,83.0,38.0,-100.00,West,268,3.0,8.0,20,0.00,,,0.00,919.000000,,2013-07-20 19:43:00,
2013-07-20 13:53:00,83.0,38.0,-100.00,West,268,3.0,8.0,20,0.00,,,0.00,919.000000,,2013-07-20 19:53:00,
2013-07-20 15:24:00,87.0,30.0,-100.00,West,269,3.0,9.0,13,0.00,,,0.00,951.000000,,2013-07-20 21:24:00,
2013-07-20 15:33:00,87.0,30.0,-100.00,West,269,3.0,9.0,13,0.00,,,0.00,951.000000,,2013-07-20 21:33:00,
2013-07-20 15:44:00,87.0,30.0,-100.00,West,269,3.0,9.0,13,0.00,,,0.00,951.000000,,2013-07-20 21:44:00,
2013-07-20 15:53:00,87.0,30.0,-100.00,West,269,3.0,9.0,13,0.00,,,0.00,951.000000,,2013-07-20 21:53:00,
2013-07-20 16:24:00,89.0,25.0,-100.00,WNW,285,4.0,13.0,10,0.00,,,0.00,907.000000,,2013-07-20 22:24:00,
2013-07-20 16:33:00,89.0,25.0,-100.00,WNW,285,4.0,13.0,10,0.00,,,0.00,907.000000,,2013-07-20 22:33:00,
2013-07-20 16:45:00,89.0,25.0,-100.00,WNW,285,4.0,13.0,10,0.00,,,0.00,907.000000,,2013-07-20 22:45:00,
2013-07-20 16:52:00,89.0,25.0,-100.00,WNW,285,4.0,13.0,10,0.00,,,0.00,907.000000,,2013-07-20 22:52:00,
2013-07-20 17:25:00,90.0,21.0,-100.00,WNW,284,4.0,12.0,8,0.00,,,0.00,802.000000,,2013-07-20 23:25:00,
2013-07-20 17:54:00,90.0,21.0,-100.00,WNW,284,4.0,12.0,8,0.00,,,0.00,802.000000,,2013-07-20 23:54:00,
2013-07-20 18:43:00,89.0,25.0,-100.00,WNW,300,4.0,11.0,10,0.00,,,0.00,654.000000,,2013-07-21 00:43:00,
2013-07-20 18:54:00,89.0,25.0,-100.00,WNW,300,4.0,11.0,10,0.00,,,0.00,654.000000,,2013-07-21 00:54:00,
2013-07-20 19:24:00,87.0,30.0,-100.00,WNW,292,5.0,12.0,13,0.00,,,0.00,436.000000,,2013-07-21 01:24:00,
2013-07-20 19:34:00,87.0,30.0,-100.00,WNW,292,5.0,12.0,13,0.00,,,0.00,436.000000,,2013-07-21 01:34:00,
2013-07-20 19:44:00,-999.0,-99.9,-100.00,WNW,292,5.0,12.0,-999,-99.99,,,-99.99,436.000000,,2013-07-21 01:44:00,
2013-07-20 20:24:00,85.0,30.0,-100.00,WNW,289,3.0,12.0,14,0.00,,,0.00,288.000000,,2013-07-21 02:24:00,
2013-07-20 20:34:00,85.0,30.0,-100.00,WNW,289,3.0,12.0,14,0.00,,,0.00,288.000000,,2013-07-21 02:34:00,
2013-07-20 20:43:00,85.0,30.0,-100.00,WNW,289,3.0,12.0,14,0.00,,,0.00,288.000000,,2013-07-21 02:43:00,
2013-07-20 20:53:00,85.0,30.0,-100.00,WNW,289,3.0,12.0,14,0.00,,,0.00,288.000000,,2013-07-21 02:53:00,
2013-07-20 21:24:00,79.0,32.0,-100.00,NW,306,1.0,8.0,18,0.00,,,0.00,94.000000,,2013-07-21 03:24:00,
2013-07-20 21:33:00,79.0,32.0,-100.00,NW,306,1.0,8.0,18,0.00,,,0.00,94.000000,,2013-07-21 03:33:00,
2013-07-20 21:44:00,79.0,32.0,-100.00,NW,306,1.0,8.0,18,0.00,,,0.00,94.000000,,2013-07-21 03:44:00,
2013-07-20 21:53:00,79.0,32.0,-100.00,NW,306,1.0,8.0,18,0.00,,,0.00,94.000000,,2013-07-21 03:53:00,
2013-07-20 22:22:00,73.0,31.0,-100.00,WNW,295,0.0,3.0,21,0.00,,,0.00,5.000000,,2013-07-21 04:22:00,
2013-07-20 22:32:00,73.0,31.0,-100.00,WNW,295,0.0,3.0,21,0.00,,,0.00,5.000000,,2013-07-21 04:32:00,
2013-07-20 22:43:00,73.0,31.0,-100.00,WNW,295,0.0,3.0,21,0.00,,,0.00,5.000000,,2013-07-21 04:43:00,
2013-07-20 22:53:00,73.0,31.0,-100.00,WNW,295,0.0,3.0,21,0.00,,,0.00,5.000000,,2013-07-21 04:53:00,
2013-07-20 23:22:00,71.0,31.0,-100.00,NNW,335,0.0,3.0,23,0.00,,,0.00,0.000000,,2013-07-21 05:22:00,
2013-07-20 23:32:00,71.0,31.0,-100.00,NNW,335,0.0,3.0,23,0.00,,,0.00,0.000000,,2013-07-21 05:32:00,
2013-07-20 23:42:00,71.0,31.0,-100.00,NNW,335,0.0,3.0,23,0.00,,,0.00,0.000000,,2013-07-21 05:42:00,
2013-07-20 23:52:00,71.0,31.0,-100.00,NNW,335,0.0,3.0,23,0.00,,,0.00,0.000000,,2013-07-21 05:52:00,